TimeEST,TemperatureF,Dew PointF,Humidity,Sea Level PressureIn,VisibilityMPH,Wind Direction,Wind SpeedMPH,Gust SpeedMPH,PrecipitationIn,Events,Conditions,WindDirDegrees,DateUTC
12:53 AM,68.0,64.9,90,30.09,10.0,WSW,3.5,-,N/A,,Mostly Cloudy,250,2012-02-17 05:53:00
1:53 AM,66.9,64.9,93,30.07,10.0,West,4.6,-,N/A,,Mostly Cloudy,270,2012-02-17 06:53:00
2:53 AM,66.9,64.9,93,30.06,10.0,Calm,Calm,-,N/A,,Mostly Cloudy,0,2012-02-17 07:53:00
3:53 AM,66.9,64.9,93,30.05,10.0,Calm,Calm,-,N/A,,Mostly Cloudy,0,2012-02-17 08:53:00
4:53 AM,66.9,64.9,93,30.04,10.0,Calm,Calm,-,N/A,,Scattered Clouds,0,2012-02-17 09:53:00
5:53 AM,66.9,64.9,93,30.07,10.0,WNW,3.5,-,N/A,,Mostly Cloudy,300,2012-02-17 10:53:00
6:53 AM,66.0,64.9,96,30.06,10.0,Calm,Calm,-,N/A,,Mostly Cloudy,0,2012-02-17 11:53:00
7:53 AM,68.0,66.0,93,30.08,10.0,Calm,Calm,-,N/A,,Mostly Cloudy,0,2012-02-17 12:53:00
8:53 AM,72.0,66.0,81,30.09,10.0,Calm,Calm,-,N/A,,Mostly Cloudy,0,2012-02-17 13:53:00
9:53 AM,75.9,64.9,69,30.10,10.0,SW,6.9,-,N/A,,Mostly Cloudy,230,2012-02-17 14:53:00
10:53 AM,77.0,64.0,64,30.09,10.0,WSW,5.8,-,N/A,,Scattered Clouds,250,2012-02-17 15:53:00
11:53 AM,78.1,64.0,62,30.06,10.0,South,6.9,-,N/A,,Mostly Cloudy,190,2012-02-17 16:53:00
12:53 PM,78.1,64.0,62,30.03,10.0,East,8.1,-,N/A,,Mostly Cloudy,90,2012-02-17 17:53:00
1:53 PM,79.0,64.0,60,30.01,10.0,SE,10.4,-,N/A,,Mostly Cloudy,140,2012-02-17 18:53:00
2:53 PM,79.0,64.0,60,29.99,10.0,SSE,12.7,-,N/A,,Mostly Cloudy,150,2012-02-17 19:53:00
3:53 PM,79.0,64.0,60,30.00,10.0,South,9.2,-,N/A,,Mostly Cloudy,180,2012-02-17 20:53:00
4:53 PM,78.1,64.9,64,29.99,10.0,SSE,11.5,-,N/A,,Mostly Cloudy,160,2012-02-17 21:53:00
5:53 PM,75.9,64.9,69,30.00,10.0,SSE,6.9,-,N/A,,Mostly Cloudy,160,2012-02-17 22:53:00
6:53 PM,75.0,64.9,71,30.01,10.0,South,5.8,-,N/A,,Mostly Cloudy,170,2012-02-17 23:53:00
7:53 PM,73.9,64.9,73,30.01,10.0,South,6.9,-,N/A,,Scattered Clouds,170,2012-02-18 00:53:00
8:53 PM,73.0,64.9,76,30.02,10.0,South,4.6,-,N/A,,Scattered Clouds,180,2012-02-18 01:53:00
9:53 PM,73.0,64.9,76,30.04,10.0,SW,6.9,-,N/A,,Mostly Cloudy,220,2012-02-18 02:53:00
10:53 PM,73.0,64.0,73,30.03,10.0,SSW,6.9,-,N/A,,Scattered Clouds,200,2012-02-18 03:53:00
11:53 PM,73.0,63.0,71,30.01,10.0,SSW,4.6,-,N/A,,Mostly Cloudy,200,2012-02-18 04:53:00